User: anonymous   Login
Location: Cronhütte
(48.9135°N, 9.6869°E)
Time: 17:15:48
(UTC+00:00)
Language:

Cosmos 2082 Rocket - Orbit

View from above orbital plane
View from above orbital plane
View from above satellite
View from above satellite

Ground track
Ground track

The orbit data is extracted from the following two-line orbital elements,

1 20625U 90046B   24206.70761811 -.00000132  00000-0 -43603-4 0  9997
2 20625  70.9993 103.1436 0012450 132.0769 228.1415 14.14847182764518
Epoch (UTC): 24 July 2024 16:58:58
Eccentricity: 0.0012450
inclination: 70.9993°
perigee height: 834 km
apogee height: 852 km
right ascension of ascending node: 103.1436°
argument of perigee: 132.0769°
revolutions per day: 14.14847182
mean anomaly at epoch: 228.1415°
orbit number at epoch: 76451

The dashed part of the orbit path shows where the satellite is in the earth's shadow,  

DLR